#datetime,building,power
2023-04-21T00:00:00,axn,27.19
2023-04-21T00:01:00,axn,26.68
2023-04-21T00:02:00,axn,28.80
2023-04-21T00:03:00,axn,26.85
2023-04-21T00:04:00,axn,27.32
2023-04-21T00:05:00,axn,27.52
2023-04-21T00:06:00,axn,27.41
2023-04-21T00:07:00,axn,27.70
2023-04-21T00:08:00,axn,27.89
2023-04-21T00:09:00,axn,27.78
2023-04-21T00:10:00,axn,27.77
2023-04-21T00:11:00,axn,28.21
2023-04-21T00:12:00,axn,28.48
2023-04-21T00:13:00,axn,32.59
2023-04-21T00:14:00,axn,32.06
2023-04-21T00:15:00,axn,31.86
2023-04-21T00:16:00,axn,27.31
2023-04-21T00:17:00,axn,27.36
2023-04-21T00:18:00,axn,27.44
2023-04-21T00:19:00,axn,27.20
2023-04-21T00:20:00,axn,27.50
2023-04-21T00:21:00,axn,27.56
2023-04-21T00:22:00,axn,27.43
2023-04-21T00:23:00,axn,27.36
2023-04-21T00:24:00,axn,27.35
2023-04-21T00:25:00,axn,27.34
2023-04-21T00:26:00,axn,27.45
2023-04-21T00:27:00,axn,27.69
2023-04-21T00:28:00,axn,27.53
2023-04-21T00:29:00,axn,30.35
2023-04-21T00:30:00,axn,30.10
2023-04-21T00:31:00,axn,30.23
2023-04-21T00:32:00,axn,27.15
2023-04-21T00:33:00,axn,27.10
2023-04-21T00:34:00,axn,27.24
2023-04-21T00:35:00,axn,27.14
2023-04-21T00:36:00,axn,27.39
2023-04-21T00:37:00,axn,27.17
2023-04-21T00:38:00,axn,27.16
2023-04-21T00:39:00,axn,27.73
2023-04-21T00:40:00,axn,27.10
2023-04-21T00:41:00,axn,26.97
2023-04-21T00:42:00,axn,26.89
2023-04-21T00:43:00,axn,26.77
2023-04-21T00:44:00,axn,26.99
2023-04-21T00:45:00,axn,27.23
2023-04-21T00:46:00,axn,26.95
2023-04-21T00:47:00,axn,26.81
2023-04-21T00:48:00,axn,26.87
2023-04-21T00:49:00,axn,26.83
2023-04-21T00:50:00,axn,26.82
2023-04-21T00:51:00,axn,27.49
2023-04-21T00:52:00,axn,26.92
2023-04-21T00:53:00,axn,26.97
2023-04-21T00:54:00,axn,26.87
2023-04-21T00:55:00,axn,26.35
2023-04-21T00:56:00,axn,26.35
2023-04-21T00:57:00,axn,26.18
2023-04-21T00:58:00,axn,26.26
2023-04-21T00:59:00,axn,26.41
2023-04-21T01:00:00,axn,26.52
2023-04-21T01:01:00,axn,26.83
2023-04-21T01:02:00,axn,26.63
2023-04-21T01:03:00,axn,26.56
2023-04-21T01:04:00,axn,26.51
2023-04-21T01:05:00,axn,26.64
2023-04-21T01:06:00,axn,26.63
2023-04-21T01:07:00,axn,26.63
2023-04-21T01:08:00,axn,26.44
2023-04-21T01:09:00,axn,26.59
2023-04-21T01:10:00,axn,26.58
2023-04-21T01:11:00,axn,26.39
2023-04-21T01:12:00,axn,26.49
2023-04-21T01:13:00,axn,26.48
2023-04-21T01:14:00,axn,26.42
2023-04-21T01:15:00,axn,26.34
2023-04-21T01:16:00,axn,26.45
2023-04-21T01:17:00,axn,26.45
2023-04-21T01:18:00,axn,26.43
2023-04-21T01:19:00,axn,26.41
2023-04-21T01:20:00,axn,26.25
2023-04-21T01:21:00,axn,26.44
2023-04-21T01:22:00,axn,26.51
2023-04-21T01:23:00,axn,26.51
2023-04-21T01:24:00,axn,26.36
2023-04-21T01:25:00,axn,26.95
2023-04-21T01:26:00,axn,26.85
2023-04-21T01:27:00,axn,26.60
2023-04-21T01:28:00,axn,26.53
2023-04-21T01:29:00,axn,26.37
2023-04-21T01:30:00,axn,26.40
2023-04-21T01:31:00,axn,26.46
2023-04-21T01:32:00,axn,26.82
2023-04-21T01:33:00,axn,26.56
2023-04-21T01:34:00,axn,26.62
2023-04-21T01:35:00,axn,26.39
2023-04-21T01:36:00,axn,26.22
2023-04-21T01:37:00,axn,26.45
2023-04-21T01:38:00,axn,40.56
2023-04-21T01:39:00,axn,40.48
2023-04-21T01:40:00,axn,43.13
2023-04-21T01:41:00,axn,47.32
2023-04-21T01:42:00,axn,47.15
2023-04-21T01:43:00,axn,33.36
2023-04-21T01:44:00,axn,33.33
2023-04-21T01:45:00,axn,32.38
2023-04-21T01:46:00,axn,32.28
2023-04-21T01:47:00,axn,31.95
2023-04-21T01:48:00,axn,31.86
2023-04-21T01:49:00,axn,32.24
2023-04-21T01:50:00,axn,29.58
2023-04-21T01:51:00,axn,29.88
2023-04-21T01:52:00,axn,29.98
2023-04-21T01:53:00,axn,30.09
2023-04-21T01:54:00,axn,30.19
2023-04-21T01:55:00,axn,30.29
2023-04-21T01:56:00,axn,30.19
2023-04-21T01:57:00,axn,30.05
2023-04-21T01:58:00,axn,30.08
2023-04-21T01:59:00,axn,29.98
2023-04-21T02:00:00,axn,30.28
2023-04-21T02:01:00,axn,30.55
2023-04-21T02:02:00,axn,31.01
2023-04-21T02:03:00,axn,30.58
2023-04-21T02:04:00,axn,30.66
2023-04-21T02:05:00,axn,30.68
2023-04-21T02:06:00,axn,30.58
2023-04-21T02:07:00,axn,30.81
2023-04-21T02:08:00,axn,30.74
2023-04-21T02:09:00,axn,30.46
2023-04-21T02:10:00,axn,30.36
2023-04-21T02:11:00,axn,30.32
2023-04-21T02:12:00,axn,30.19
2023-04-21T02:13:00,axn,30.23
2023-04-21T02:14:00,axn,30.40
2023-04-21T02:15:00,axn,30.24
2023-04-21T02:16:00,axn,30.17
2023-04-21T02:17:00,axn,30.41
2023-04-21T02:18:00,axn,30.30
2023-04-21T02:19:00,axn,30.23
2023-04-21T02:20:00,axn,30.14
2023-04-21T02:21:00,axn,29.88
2023-04-21T02:22:00,axn,30.28
2023-04-21T02:23:00,axn,30.08
2023-04-21T02:24:00,axn,29.85
2023-04-21T02:25:00,axn,30.07
2023-04-21T02:26:00,axn,29.92
2023-04-21T02:27:00,axn,30.03
2023-04-21T02:28:00,axn,30.16
2023-04-21T02:29:00,axn,30.59
2023-04-21T02:30:00,axn,30.23
2023-04-21T02:31:00,axn,33.29
2023-04-21T02:32:00,axn,33.70
2023-04-21T02:33:00,axn,30.35
2023-04-21T02:34:00,axn,36.14
2023-04-21T02:35:00,axn,35.96
2023-04-21T02:36:00,axn,36.16
2023-04-21T02:37:00,axn,29.89
2023-04-21T02:38:00,axn,30.08
2023-04-21T02:39:00,axn,30.04
2023-04-21T02:40:00,axn,30.90
2023-04-21T02:41:00,axn,30.67
2023-04-21T02:42:00,axn,30.31
2023-04-21T02:43:00,axn,30.80
2023-04-21T02:44:00,axn,30.86
2023-04-21T02:45:00,axn,30.35
2023-04-21T02:46:00,axn,30.81
2023-04-21T02:47:00,axn,30.62
2023-04-21T02:48:00,axn,29.37
2023-04-21T02:49:00,axn,26.20
2023-04-21T02:50:00,axn,26.24
2023-04-21T02:51:00,axn,26.10
2023-04-21T02:52:00,axn,26.29
2023-04-21T02:53:00,axn,26.36
2023-04-21T02:54:00,axn,26.41
2023-04-21T02:55:00,axn,26.95
2023-04-21T02:56:00,axn,26.60
2023-04-21T02:57:00,axn,26.58
2023-04-21T02:58:00,axn,26.56
2023-04-21T02:59:00,axn,26.35
2023-04-21T03:00:00,axn,26.12
2023-04-21T03:01:00,axn,26.12
2023-04-21T03:02:00,axn,26.02
2023-04-21T03:03:00,axn,26.02
2023-04-21T03:04:00,axn,26.10
2023-04-21T03:05:00,axn,26.03
2023-04-21T03:06:00,axn,25.80
2023-04-21T03:07:00,axn,25.76
2023-04-21T03:08:00,axn,25.57
2023-04-21T03:09:00,axn,25.67
2023-04-21T03:10:00,axn,25.72
2023-04-21T03:11:00,axn,25.62
2023-04-21T03:12:00,axn,25.66
2023-04-21T03:13:00,axn,25.69
2023-04-21T03:14:00,axn,25.60
2023-04-21T03:15:00,axn,25.94
2023-04-21T03:16:00,axn,25.59
2023-04-21T03:17:00,axn,25.50
2023-04-21T03:18:00,axn,25.72
2023-04-21T03:19:00,axn,25.63
2023-04-21T03:20:00,axn,25.52
2023-04-21T03:21:00,axn,25.59
2023-04-21T03:22:00,axn,25.74
2023-04-21T03:23:00,axn,25.74
2023-04-21T03:24:00,axn,25.59
2023-04-21T03:25:00,axn,25.67
2023-04-21T03:26:00,axn,25.56
2023-04-21T03:27:00,axn,25.81
2023-04-21T03:28:00,axn,25.73
2023-04-21T03:29:00,axn,25.67
2023-04-21T03:30:00,axn,25.64
2023-04-21T03:31:00,axn,25.72
2023-04-21T03:32:00,axn,25.60
2023-04-21T03:33:00,axn,25.72
2023-04-21T03:34:00,axn,25.93
2023-04-21T03:35:00,axn,25.68
2023-04-21T03:36:00,axn,26.19
2023-04-21T03:37:00,axn,25.88
2023-04-21T03:38:00,axn,28.57
2023-04-21T03:39:00,axn,28.53
2023-04-21T03:40:00,axn,28.71
2023-04-21T03:41:00,axn,26.35
2023-04-21T03:42:00,axn,25.91
2023-04-21T03:43:00,axn,25.78
2023-04-21T03:44:00,axn,25.91
2023-04-21T03:45:00,axn,25.81
2023-04-21T03:46:00,axn,25.73
2023-04-21T03:47:00,axn,25.81
2023-04-21T03:48:00,axn,25.69
2023-04-21T03:49:00,axn,25.70
2023-04-21T03:50:00,axn,25.74
2023-04-21T03:51:00,axn,26.00
2023-04-21T03:52:00,axn,25.94
2023-04-21T03:53:00,axn,26.03
2023-04-21T03:54:00,axn,26.03
2023-04-21T03:55:00,axn,26.38
2023-04-21T03:56:00,axn,25.83
2023-04-21T03:57:00,axn,25.69
2023-04-21T03:58:00,axn,25.54
2023-04-21T03:59:00,axn,25.74
2023-04-21T04:00:00,axn,25.93
2023-04-21T04:01:00,axn,25.62
2023-04-21T04:02:00,axn,38.08
2023-04-21T04:03:00,axn,36.03
2023-04-21T04:04:00,axn,35.91
2023-04-21T04:05:00,axn,35.76
2023-04-21T04:06:00,axn,35.72
2023-04-21T04:07:00,axn,25.40
2023-04-21T04:08:00,axn,25.35
2023-04-21T04:09:00,axn,25.46
2023-04-21T04:10:00,axn,25.41
2023-04-21T04:11:00,axn,25.51
2023-04-21T04:12:00,axn,25.41
2023-04-21T04:13:00,axn,25.25
2023-04-21T04:14:00,axn,25.24
2023-04-21T04:15:00,axn,25.17
2023-04-21T04:16:00,axn,25.10
2023-04-21T04:17:00,axn,25.26
2023-04-21T04:18:00,axn,25.18
2023-04-21T04:19:00,axn,25.16
2023-04-21T04:20:00,axn,25.13
2023-04-21T04:21:00,axn,24.99
2023-04-21T04:22:00,axn,25.03
2023-04-21T04:23:00,axn,25.23
2023-04-21T04:24:00,axn,25.27
2023-04-21T04:25:00,axn,25.24
2023-04-21T04:26:00,axn,25.05
2023-04-21T04:27:00,axn,25.13
2023-04-21T04:28:00,axn,25.14
2023-04-21T04:29:00,axn,25.24
2023-04-21T04:30:00,axn,25.27
2023-04-21T04:31:00,axn,25.43
2023-04-21T04:32:00,axn,25.29
2023-04-21T04:33:00,axn,25.20
2023-04-21T04:34:00,axn,25.32
2023-04-21T04:35:00,axn,25.35
2023-04-21T04:36:00,axn,25.36
2023-04-21T04:37:00,axn,25.33
2023-04-21T04:38:00,axn,25.42
2023-04-21T04:39:00,axn,25.38
2023-04-21T04:40:00,axn,25.44
2023-04-21T04:41:00,axn,25.47
2023-04-21T04:42:00,axn,25.74
2023-04-21T04:43:00,axn,25.65
2023-04-21T04:44:00,axn,25.59
2023-04-21T04:45:00,axn,25.62
2023-04-21T04:46:00,axn,25.59
2023-04-21T04:47:00,axn,25.73
2023-04-21T04:48:00,axn,25.55
2023-04-21T04:49:00,axn,25.50
2023-04-21T04:50:00,axn,25.92
2023-04-21T04:51:00,axn,25.98
2023-04-21T04:52:00,axn,26.09
2023-04-21T04:53:00,axn,26.11
2023-04-21T04:54:00,axn,26.50
2023-04-21T04:55:00,axn,26.40
2023-04-21T04:56:00,axn,27.15
2023-04-21T04:57:00,axn,26.73
2023-04-21T04:58:00,axn,27.12
2023-04-21T04:59:00,axn,28.13
2023-04-21T05:00:00,axn,27.80
2023-04-21T05:01:00,axn,26.11
2023-04-21T05:02:00,axn,25.64
2023-04-21T05:03:00,axn,25.64
2023-04-21T05:04:00,axn,25.71
2023-04-21T05:05:00,axn,25.63
2023-04-21T05:06:00,axn,25.78
2023-04-21T05:07:00,axn,25.88
2023-04-21T05:08:00,axn,25.93
2023-04-21T05:09:00,axn,25.91
2023-04-21T05:10:00,axn,26.39
2023-04-21T05:11:00,axn,25.86
2023-04-21T05:12:00,axn,25.94
2023-04-21T05:13:00,axn,25.90
2023-04-21T05:14:00,axn,26.05
2023-04-21T05:15:00,axn,26.32
2023-04-21T05:16:00,axn,25.94
2023-04-21T05:17:00,axn,25.73
2023-04-21T05:18:00,axn,26.37
2023-04-21T05:19:00,axn,26.50
2023-04-21T05:20:00,axn,26.32
2023-04-21T05:21:00,axn,25.85
2023-04-21T05:22:00,axn,25.92
2023-04-21T05:23:00,axn,25.94
2023-04-21T05:24:00,axn,25.99
2023-04-21T05:25:00,axn,25.90
2023-04-21T05:26:00,axn,25.90
2023-04-21T05:27:00,axn,25.82
2023-04-21T05:28:00,axn,26.37
2023-04-21T05:29:00,axn,26.25
2023-04-21T05:30:00,axn,26.51
2023-04-21T05:31:00,axn,29.04
2023-04-21T05:32:00,axn,28.93
2023-04-21T05:33:00,axn,29.31
2023-04-21T05:34:00,axn,28.99
2023-04-21T05:35:00,axn,28.66
2023-04-21T05:36:00,axn,28.37
2023-04-21T05:37:00,axn,28.51
2023-04-21T05:38:00,axn,28.60
2023-04-21T05:39:00,axn,52.97
2023-04-21T05:40:00,axn,28.52
2023-04-21T05:41:00,axn,28.70
2023-04-21T05:42:00,axn,28.62
2023-04-21T05:43:00,axn,29.01
2023-04-21T05:44:00,axn,31.52
2023-04-21T05:45:00,axn,28.49
2023-04-21T05:46:00,axn,28.81
2023-04-21T05:47:00,axn,28.44
2023-04-21T05:48:00,axn,28.48
2023-04-21T05:49:00,axn,28.48
2023-04-21T05:50:00,axn,28.32
2023-04-21T05:51:00,axn,28.91
2023-04-21T05:52:00,axn,29.19
2023-04-21T05:53:00,axn,29.20
2023-04-21T05:54:00,axn,29.13
2023-04-21T05:55:00,axn,31.26
2023-04-21T05:56:00,axn,29.04
2023-04-21T05:57:00,axn,28.68
2023-04-21T05:58:00,axn,28.77
2023-04-21T05:59:00,axn,29.09
2023-04-21T06:00:00,axn,28.73
2023-04-21T06:01:00,axn,29.05
2023-04-21T06:02:00,axn,28.58
2023-04-21T06:03:00,axn,28.28
2023-04-21T06:04:00,axn,28.52
2023-04-21T06:05:00,axn,28.57
2023-04-21T06:06:00,axn,28.57
2023-04-21T06:07:00,axn,28.71
2023-04-21T06:08:00,axn,28.57
2023-04-21T06:09:00,axn,28.75
2023-04-21T06:10:00,axn,28.73
2023-04-21T06:11:00,axn,28.78
2023-04-21T06:12:00,axn,28.68
2023-04-21T06:13:00,axn,28.57
2023-04-21T06:14:00,axn,28.77
2023-04-21T06:15:00,axn,28.80
2023-04-21T06:16:00,axn,28.65
2023-04-21T06:17:00,axn,29.29
2023-04-21T06:18:00,axn,28.54
2023-04-21T06:19:00,axn,28.79
2023-04-21T06:20:00,axn,28.78
2023-04-21T06:21:00,axn,28.55
2023-04-21T06:22:00,axn,28.60
2023-04-21T06:23:00,axn,28.65
2023-04-21T06:24:00,axn,28.65
2023-04-21T06:25:00,axn,28.51
2023-04-21T06:26:00,axn,28.48
2023-04-21T06:27:00,axn,28.43
2023-04-21T06:28:00,axn,28.29
2023-04-21T06:29:00,axn,28.28
2023-04-21T06:30:00,axn,28.09
2023-04-21T06:31:00,axn,28.43
2023-04-21T06:32:00,axn,28.05
2023-04-21T06:33:00,axn,28.03
2023-04-21T06:34:00,axn,28.14
2023-04-21T06:35:00,axn,27.97
2023-04-21T06:36:00,axn,28.16
2023-04-21T06:37:00,axn,28.06
2023-04-21T06:38:00,axn,28.06
2023-04-21T06:39:00,axn,28.17
2023-04-21T06:40:00,axn,27.98
2023-04-21T06:41:00,axn,44.44
2023-04-21T06:42:00,axn,27.86
2023-04-21T06:43:00,axn,27.95
2023-04-21T06:44:00,axn,28.18
2023-04-21T06:45:00,axn,28.00
2023-04-21T06:46:00,axn,27.57
2023-04-21T06:47:00,axn,28.07
2023-04-21T06:48:00,axn,27.68
2023-04-21T06:49:00,axn,30.36
2023-04-21T06:50:00,axn,30.49
2023-04-21T06:51:00,axn,30.46
2023-04-21T06:52:00,axn,27.56
2023-04-21T06:53:00,axn,27.43
2023-04-21T06:54:00,axn,27.99
2023-04-21T06:55:00,axn,27.74
2023-04-21T06:56:00,axn,27.94
2023-04-21T06:57:00,axn,27.44
2023-04-21T06:58:00,axn,27.37
2023-04-21T06:59:00,axn,27.35
2023-04-21T07:00:00,axn,27.41
2023-04-21T07:01:00,axn,31.41
2023-04-21T07:02:00,axn,32.10
2023-04-21T07:03:00,axn,33.27
2023-04-21T07:04:00,axn,33.06
2023-04-21T07:05:00,axn,32.85
2023-04-21T07:06:00,axn,34.16
2023-04-21T07:07:00,axn,33.37
2023-04-21T07:08:00,axn,33.10
2023-04-21T07:09:00,axn,34.29
2023-04-21T07:10:00,axn,34.08
2023-04-21T07:11:00,axn,34.15
2023-04-21T07:12:00,axn,33.82
2023-04-21T07:13:00,axn,33.75
2023-04-21T07:14:00,axn,34.20
2023-04-21T07:15:00,axn,34.16
2023-04-21T07:16:00,axn,34.03
2023-04-21T07:17:00,axn,34.09
2023-04-21T07:18:00,axn,33.99
2023-04-21T07:19:00,axn,35.07
2023-04-21T07:20:00,axn,35.32
2023-04-21T07:21:00,axn,34.39
2023-04-21T07:22:00,axn,34.23
2023-04-21T07:23:00,axn,34.20
2023-04-21T07:24:00,axn,34.01
2023-04-21T07:25:00,axn,33.96
2023-04-21T07:26:00,axn,34.20
2023-04-21T07:27:00,axn,50.51
2023-04-21T07:28:00,axn,51.11
2023-04-21T07:29:00,axn,48.21
2023-04-21T07:30:00,axn,48.19
2023-04-21T07:31:00,axn,48.44
2023-04-21T07:32:00,axn,48.75
2023-04-21T07:33:00,axn,48.29
2023-04-21T07:34:00,axn,34.37
2023-04-21T07:35:00,axn,34.14
2023-04-21T07:36:00,axn,34.14
2023-04-21T07:37:00,axn,34.26
2023-04-21T07:38:00,axn,34.21
2023-04-21T07:39:00,axn,34.44
2023-04-21T07:40:00,axn,34.12
2023-04-21T07:41:00,axn,34.15
2023-04-21T07:42:00,axn,50.07
2023-04-21T07:43:00,axn,34.52
2023-04-21T07:44:00,axn,34.64
2023-04-21T07:45:00,axn,34.36
2023-04-21T07:46:00,axn,34.27
2023-04-21T07:47:00,axn,50.35
2023-04-21T07:48:00,axn,34.45
2023-04-21T07:49:00,axn,34.25
2023-04-21T07:50:00,axn,34.56
2023-04-21T07:51:00,axn,34.33
2023-04-21T07:52:00,axn,34.00
2023-04-21T07:53:00,axn,33.85
2023-04-21T07:54:00,axn,33.95
2023-04-21T07:55:00,axn,34.08
2023-04-21T07:56:00,axn,34.37
2023-04-21T07:57:00,axn,34.12
2023-04-21T07:58:00,axn,34.07
2023-04-21T07:59:00,axn,34.15
2023-04-21T08:00:00,axn,34.16
2023-04-21T08:01:00,axn,34.31
2023-04-21T08:02:00,axn,38.02
2023-04-21T08:03:00,axn,37.90
2023-04-21T08:04:00,axn,37.88
2023-04-21T08:05:00,axn,37.85
2023-04-21T08:06:00,axn,38.51
2023-04-21T08:07:00,axn,38.57
2023-04-21T08:08:00,axn,38.26
2023-04-21T08:09:00,axn,38.49
2023-04-21T08:10:00,axn,38.37
2023-04-21T08:11:00,axn,38.42
2023-04-21T08:12:00,axn,38.61
2023-04-21T08:13:00,axn,38.85
2023-04-21T08:14:00,axn,38.54
2023-04-21T08:15:00,axn,39.06
2023-04-21T08:16:00,axn,38.75
2023-04-21T08:17:00,axn,39.08
2023-04-21T08:18:00,axn,39.03
2023-04-21T08:19:00,axn,38.99
2023-04-21T08:20:00,axn,38.59
2023-04-21T08:21:00,axn,38.69
2023-04-21T08:22:00,axn,38.90
2023-04-21T08:23:00,axn,38.65
2023-04-21T08:24:00,axn,38.75
2023-04-21T08:25:00,axn,41.20
2023-04-21T08:26:00,axn,40.99
2023-04-21T08:27:00,axn,41.29
2023-04-21T08:28:00,axn,41.54
2023-04-21T08:29:00,axn,40.65
2023-04-21T08:30:00,axn,40.80
2023-04-21T08:31:00,axn,40.95
2023-04-21T08:32:00,axn,40.94
2023-04-21T08:33:00,axn,40.83
2023-04-21T08:34:00,axn,40.31
2023-04-21T08:35:00,axn,40.32
2023-04-21T08:36:00,axn,40.20
2023-04-21T08:37:00,axn,40.76
2023-04-21T08:38:00,axn,40.80
2023-04-21T08:39:00,axn,40.87
2023-04-21T08:40:00,axn,40.82
2023-04-21T08:41:00,axn,40.78
2023-04-21T08:42:00,axn,40.80
2023-04-21T08:43:00,axn,45.69
2023-04-21T08:44:00,axn,45.59
2023-04-21T08:45:00,axn,45.51
2023-04-21T08:46:00,axn,45.65
2023-04-21T08:47:00,axn,41.19
2023-04-21T08:48:00,axn,41.44
2023-04-21T08:49:00,axn,41.14
2023-04-21T08:50:00,axn,40.99
2023-04-21T08:51:00,axn,40.96
2023-04-21T08:52:00,axn,43.65
2023-04-21T08:53:00,axn,43.84
2023-04-21T08:54:00,axn,40.65
2023-04-21T08:55:00,axn,40.39
2023-04-21T08:56:00,axn,40.52
2023-04-21T08:57:00,axn,40.23
2023-04-21T08:58:00,axn,40.33
2023-04-21T08:59:00,axn,40.45
2023-04-21T09:00:00,axn,40.88
2023-04-21T09:01:00,axn,40.97
2023-04-21T09:02:00,axn,41.14
2023-04-21T09:03:00,axn,41.31
2023-04-21T09:04:00,axn,40.75
2023-04-21T09:05:00,axn,40.59
2023-04-21T09:06:00,axn,40.20
2023-04-21T09:07:00,axn,40.79
2023-04-21T09:08:00,axn,40.92
2023-04-21T09:09:00,axn,40.53
2023-04-21T09:10:00,axn,41.02
2023-04-21T09:11:00,axn,50.93
2023-04-21T09:12:00,axn,50.80
2023-04-21T09:13:00,axn,50.88
2023-04-21T09:14:00,axn,51.13
2023-04-21T09:15:00,axn,40.86
2023-04-21T09:16:00,axn,40.66
2023-04-21T09:17:00,axn,41.27
2023-04-21T09:18:00,axn,41.29
2023-04-21T09:19:00,axn,40.62
2023-04-21T09:20:00,axn,41.09
2023-04-21T09:21:00,axn,40.64
2023-04-21T09:22:00,axn,40.68
2023-04-21T09:23:00,axn,41.02
2023-04-21T09:24:00,axn,40.56
2023-04-21T09:25:00,axn,40.87
2023-04-21T09:26:00,axn,41.42
2023-04-21T09:27:00,axn,40.22
2023-04-21T09:28:00,axn,40.64
2023-04-21T09:29:00,axn,40.38
2023-04-21T09:30:00,axn,40.60
2023-04-21T09:31:00,axn,41.05
2023-04-21T09:32:00,axn,40.85
2023-04-21T09:33:00,axn,40.73
2023-04-21T09:34:00,axn,40.98
2023-04-21T09:35:00,axn,40.90
2023-04-21T09:36:00,axn,41.08
2023-04-21T09:37:00,axn,40.78
2023-04-21T09:38:00,axn,40.65
2023-04-21T09:39:00,axn,40.63
2023-04-21T09:40:00,axn,40.47
2023-04-21T09:41:00,axn,41.12
2023-04-21T09:42:00,axn,41.48
2023-04-21T09:43:00,axn,42.01
2023-04-21T09:44:00,axn,41.56
2023-04-21T09:45:00,axn,41.48
2023-04-21T09:46:00,axn,41.07
2023-04-21T09:47:00,axn,42.66
2023-04-21T09:48:00,axn,41.36
2023-04-21T09:49:00,axn,41.51
2023-04-21T09:50:00,axn,41.87
2023-04-21T09:51:00,axn,41.78
2023-04-21T09:52:00,axn,40.94
2023-04-21T09:53:00,axn,40.89
2023-04-21T09:54:00,axn,41.05
2023-04-21T09:55:00,axn,40.94
2023-04-21T09:56:00,axn,40.98
2023-04-21T09:57:00,axn,43.85
2023-04-21T09:58:00,axn,43.83
2023-04-21T09:59:00,axn,43.79
2023-04-21T10:00:00,axn,41.19
2023-04-21T10:01:00,axn,41.63
2023-04-21T10:02:00,axn,41.33
2023-04-21T10:03:00,axn,41.46
2023-04-21T10:04:00,axn,41.79
2023-04-21T10:05:00,axn,41.75
2023-04-21T10:06:00,axn,41.72
2023-04-21T10:07:00,axn,41.86
2023-04-21T10:08:00,axn,41.90
2023-04-21T10:09:00,axn,41.72
2023-04-21T10:10:00,axn,41.79
2023-04-21T10:11:00,axn,41.88
2023-04-21T10:12:00,axn,41.54
2023-04-21T10:13:00,axn,41.73
2023-04-21T10:14:00,axn,41.91
2023-04-21T10:15:00,axn,41.56
2023-04-21T10:16:00,axn,41.42
2023-04-21T10:17:00,axn,41.62
2023-04-21T10:18:00,axn,41.59
2023-04-21T10:19:00,axn,41.20
2023-04-21T10:20:00,axn,41.76
2023-04-21T10:21:00,axn,41.33
2023-04-21T10:22:00,axn,41.35
2023-04-21T10:23:00,axn,41.46
2023-04-21T10:24:00,axn,41.34
2023-04-21T10:25:00,axn,41.45
2023-04-21T10:26:00,axn,41.37
2023-04-21T10:27:00,axn,41.86
2023-04-21T10:28:00,axn,41.77
2023-04-21T10:29:00,axn,41.38
2023-04-21T10:30:00,axn,41.27
2023-04-21T10:31:00,axn,41.48
2023-04-21T10:32:00,axn,41.56
2023-04-21T10:33:00,axn,41.26
2023-04-21T10:34:00,axn,41.37
2023-04-21T10:35:00,axn,41.13
2023-04-21T10:36:00,axn,41.52
2023-04-21T10:37:00,axn,41.35
2023-04-21T10:38:00,axn,41.60
2023-04-21T10:39:00,axn,41.22
2023-04-21T10:40:00,axn,40.84
2023-04-21T10:41:00,axn,40.88
2023-04-21T10:42:00,axn,41.86
2023-04-21T10:43:00,axn,40.70
2023-04-21T10:44:00,axn,41.27
2023-04-21T10:45:00,axn,41.28
2023-04-21T10:46:00,axn,40.82
2023-04-21T10:47:00,axn,40.75
2023-04-21T10:48:00,axn,41.38
2023-04-21T10:49:00,axn,41.02
2023-04-21T10:50:00,axn,40.68
2023-04-21T10:51:00,axn,40.84
2023-04-21T10:52:00,axn,40.75
2023-04-21T10:53:00,axn,40.83
2023-04-21T10:54:00,axn,44.30
2023-04-21T10:55:00,axn,41.25
2023-04-21T10:56:00,axn,41.49
2023-04-21T10:57:00,axn,41.30
2023-04-21T10:58:00,axn,41.67
2023-04-21T10:59:00,axn,49.70
2023-04-21T11:00:00,axn,41.00
2023-04-21T11:01:00,axn,40.99
2023-04-21T11:02:00,axn,41.09
2023-04-21T11:03:00,axn,40.21
2023-04-21T11:04:00,axn,40.36
2023-04-21T11:05:00,axn,50.95
2023-04-21T11:06:00,axn,59.97
2023-04-21T11:07:00,axn,60.17
2023-04-21T11:08:00,axn,59.60
2023-04-21T11:09:00,axn,59.41
2023-04-21T11:10:00,axn,53.41
2023-04-21T11:11:00,axn,53.09
2023-04-21T11:12:00,axn,39.35
2023-04-21T11:13:00,axn,39.51
2023-04-21T11:14:00,axn,40.29
2023-04-21T11:15:00,axn,39.77
2023-04-21T11:16:00,axn,39.70
2023-04-21T11:17:00,axn,40.44
2023-04-21T11:18:00,axn,40.38
2023-04-21T11:19:00,axn,39.89
2023-04-21T11:20:00,axn,40.47
2023-04-21T11:21:00,axn,40.33
2023-04-21T11:22:00,axn,40.80
2023-04-21T11:23:00,axn,40.15
2023-04-21T11:24:00,axn,40.10
2023-04-21T11:25:00,axn,40.03
2023-04-21T11:26:00,axn,40.76
2023-04-21T11:27:00,axn,40.16
2023-04-21T11:28:00,axn,40.45
2023-04-21T11:29:00,axn,40.19
2023-04-21T11:30:00,axn,40.51
2023-04-21T11:31:00,axn,40.21
2023-04-21T11:32:00,axn,40.52
2023-04-21T11:33:00,axn,40.09
2023-04-21T11:34:00,axn,40.27
2023-04-21T11:35:00,axn,42.50
2023-04-21T11:36:00,axn,41.11
2023-04-21T11:37:00,axn,39.79
2023-04-21T11:38:00,axn,40.06
2023-04-21T11:39:00,axn,39.86
2023-04-21T11:40:00,axn,40.12
2023-04-21T11:41:00,axn,39.98
2023-04-21T11:42:00,axn,40.01
2023-04-21T11:43:00,axn,39.87
2023-04-21T11:44:00,axn,41.45
2023-04-21T11:45:00,axn,39.70
2023-04-21T11:46:00,axn,39.77
2023-04-21T11:47:00,axn,40.09
2023-04-21T11:48:00,axn,40.17
2023-04-21T11:49:00,axn,39.81
2023-04-21T11:50:00,axn,41.14
2023-04-21T11:51:00,axn,40.20
2023-04-21T11:52:00,axn,40.16
2023-04-21T11:53:00,axn,39.78
2023-04-21T11:54:00,axn,39.64
2023-04-21T11:55:00,axn,39.98
2023-04-21T11:56:00,axn,39.40
2023-04-21T11:57:00,axn,38.82
2023-04-21T11:58:00,axn,38.68
2023-04-21T11:59:00,axn,36.62
2023-04-21T12:00:00,axn,36.81
2023-04-21T12:01:00,axn,36.97
2023-04-21T12:02:00,axn,37.07
2023-04-21T12:03:00,axn,36.90
2023-04-21T12:04:00,axn,37.46
2023-04-21T12:05:00,axn,37.22
2023-04-21T12:06:00,axn,37.95
2023-04-21T12:07:00,axn,37.96
2023-04-21T12:08:00,axn,37.72
2023-04-21T12:09:00,axn,37.36
2023-04-21T12:10:00,axn,37.49
2023-04-21T12:11:00,axn,37.95
2023-04-21T12:12:00,axn,37.75
2023-04-21T12:13:00,axn,38.20
2023-04-21T12:14:00,axn,37.87
2023-04-21T12:15:00,axn,40.65
2023-04-21T12:16:00,axn,40.77
2023-04-21T12:17:00,axn,40.16
2023-04-21T12:18:00,axn,39.71
2023-04-21T12:19:00,axn,36.99
2023-04-21T12:20:00,axn,36.88
2023-04-21T12:21:00,axn,36.74
2023-04-21T12:22:00,axn,36.71
2023-04-21T12:23:00,axn,36.99
2023-04-21T12:24:00,axn,37.86
2023-04-21T12:25:00,axn,37.70
2023-04-21T12:26:00,axn,37.99
2023-04-21T12:27:00,axn,37.88
2023-04-21T12:28:00,axn,45.81
2023-04-21T12:29:00,axn,45.70
2023-04-21T12:30:00,axn,45.74
2023-04-21T12:31:00,axn,45.79
2023-04-21T12:32:00,axn,45.50
2023-04-21T12:33:00,axn,45.04
2023-04-21T12:34:00,axn,45.04
2023-04-21T12:35:00,axn,45.22
2023-04-21T12:36:00,axn,44.74
2023-04-21T12:37:00,axn,44.77
2023-04-21T12:38:00,axn,44.76
2023-04-21T12:39:00,axn,44.58
2023-04-21T12:40:00,axn,44.76
2023-04-21T12:41:00,axn,44.81
2023-04-21T12:42:00,axn,45.12
2023-04-21T12:43:00,axn,44.68
2023-04-21T12:44:00,axn,44.55
2023-04-21T12:45:00,axn,44.50
2023-04-21T12:46:00,axn,44.28
2023-04-21T12:47:00,axn,44.36
2023-04-21T12:48:00,axn,44.60
2023-04-21T12:49:00,axn,44.75
2023-04-21T12:50:00,axn,44.89
2023-04-21T12:51:00,axn,45.13
2023-04-21T12:52:00,axn,45.39
2023-04-21T12:53:00,axn,45.05
2023-04-21T12:54:00,axn,44.72
2023-04-21T12:55:00,axn,59.99
2023-04-21T12:56:00,axn,44.89
2023-04-21T12:57:00,axn,44.76
2023-04-21T12:58:00,axn,44.89
2023-04-21T12:59:00,axn,44.95
2023-04-21T13:00:00,axn,44.99
2023-04-21T13:01:00,axn,45.30
2023-04-21T13:02:00,axn,45.62
2023-04-21T13:03:00,axn,44.71
2023-04-21T13:04:00,axn,45.81
2023-04-21T13:05:00,axn,45.47
2023-04-21T13:06:00,axn,48.83
2023-04-21T13:07:00,axn,48.67
2023-04-21T13:08:00,axn,45.80
2023-04-21T13:09:00,axn,45.35
2023-04-21T13:10:00,axn,45.62
2023-04-21T13:11:00,axn,45.96
2023-04-21T13:12:00,axn,45.68
2023-04-21T13:13:00,axn,45.88
2023-04-21T13:14:00,axn,45.86
2023-04-21T13:15:00,axn,45.54
2023-04-21T13:16:00,axn,45.44
2023-04-21T13:17:00,axn,45.13
2023-04-21T13:18:00,axn,45.17